This demonstration page uses our WeatherBlox Daily Observations layout. Learn more.

Left ArrowRight Arrow

Hourly Observations for July 11, 2022

Temp ( °F °C ) Dew Point ( °F °C ) Humidity (%) Winds ( mph kmh ) Pressure ( in mb ) Visibility ( mi km ) Precip ( " mm )
12:59 am 00:59 Cloudy 71 21.7 67 19.4 87 87 NE 8 13 29.98 1015 10 16 0.00 0.00
1:59 am 01:59 Cloudy 69 20.6 67 19.4 93 93 NE 8 13 29.96 1015 10 16 0.00 0.00
2:20 am 02:20 Cloudy 71 21.7 66 18.9 84 84 NNE 10 17 29.97 1015 10 16 0.00 0.00
2:59 am 02:59 Cloudy with Light Rain 71 21.7 66 18.9 84 84 NE 13 20 29.96 1015 10 16 0.00 0.00
3:59 am 03:59 Cloudy 70 21.1 66 18.9 87 87 NE 10 17 29.95 1014 10 16 0.00 0.00
4:42 am 04:42 Cloudy 70 21.1 66 18.9 87 87 NNE 8 13 29.96 1015 9 14 0.00 0.00
4:59 am 04:59 Cloudy with Light Rain 70 21.1 66 18.9 87 87 NE 10 17 29.96 1015 7 11 0.00 0.00
5:59 am 05:59 Cloudy with Light Rain 70 21.1 66 18.9 87 87 NE 9 15 29.96 1015 10 16 0.00 0.00
6:59 am 06:59 Cloudy 70 21.1 66 18.9 87 87 ENE 10 17 29.98 1015 9 14 0.00 0.00
7:59 am 07:59 Cloudy 72 22.2 66 18.9 82 82 ENE 9 15 29.98 1015 10 16 0.00 0.00
8:59 am 08:59 Cloudy 72 22.2 66 18.9 82 82 ENE 9 15 29.97 1015 10 16 0.00 0.00
9:59 am 09:59 Cloudy 73 22.8 65 18.3 76 76 NNE 10 17 29.98 1015 10 16 0.00 0.00
10:59 am 10:59 Mostly Cloudy 73 22.8 65 18.3 76 76 NE 13 20 29.99 1016 10 16 0.00 0.00
11:59 am 11:59 Mostly Cloudy 75 23.9 65 18.3 71 71 NE 12 19 29.99 1016 10 16 0.00 0.00
12:59 pm 12:59 Cloudy 77 25 66 18.9 69 69 NE 10 17 29.98 1015 10 16 0.00 0.00
1:59 pm 13:59 Mostly Cloudy 77 25 68 20 74 74 NE 8 13 29.98 1015 10 16 0.00 0.00
2:59 pm 14:59 Mostly Cloudy 79 26.1 66 18.9 65 65 VRB 6 9 29.98 1015 10 16 0.00 0.00
3:59 pm 15:59 Mostly Cloudy 77 25 68 20 74 74 E 6 9 29.96 1015 10 16 0.00 0.00
4:59 pm 16:59 Mostly Cloudy 79 26.1 66 18.9 65 65 E 8 13 29.96 1014 10 16 0.00 0.00
5:59 pm 17:59 Mostly Cloudy 79 26.1 64 17.8 60 60 E 7 11 29.94 1014 10 16 0.00 0.00
6:59 pm 18:59 Cloudy 79 26.1 65 18.3 62 62 E 6 9 29.93 1014 10 16 0.00 0.00
7:59 pm 19:59 Mostly Cloudy 77 25 65 18.3 66 66 ESE 5 7 29.94 1014 10 16 0.00 0.00
8:59 pm 20:59 Mostly Cloudy 75 23.9 64 17.8 69 69 Calm 29.93 1014 10 16 0.00 0.00
9:59 pm 21:59 Mostly Cloudy 75 23.9 64 17.8 69 69 S 3 6 29.95 1014 10 16 0.00 0.00
10:59 pm 22:59 Partly Cloudy 73 22.8 66 18.9 79 79 S 5 7 29.95 1014 10 16 0.00 0.00
11:59 pm 23:59 Partly Cloudy 73 22.8 66 18.9 79 79 S 3 6 29.96 1014 10 16 0.00 0.00

Powered by AerisWeather